Location: Hardenberg
(52.5670°N, 6.6170°E)
Time: 20:51:56
(UTC+02:00)

ISS - Pass Details

Date: 17 May 2021
Orbit: 417 x 422 km, 51.6° (Epoch: 12 June)

Event Time Altitude Azimuth Distance (km) Brightness Sun altitude
Rises 03:40:09 0° 281° (W) 2,374 -0.1 -12.7°
Reaches altitude 10° 03:42:33 10° 266° (W) 1,507 -1.3 -12.5°
Maximum altitude 03:45:14 22° 213° (SSW) 970 -2.6 -12.3°
Drops below altitude 10° 03:47:56 10° 160° (SSE) 1,503 -1.3 -12.1°
Sets 03:50:18 0° 145° (SE) 2,364 -0.2 -11.9°
